{"data":{"norad_id":59725,"epoch":"2026-05-24T17:12:29.949984Z","epoch_age_seconds":103500,"freshness":"FRESH","line1":"1 59725U 24088T   26144.71701331  .00000394  00000+0  24476-4 0  9992","line2":"2 59725  53.1599 146.6751 0001191  90.2144 269.8994 15.31699015115323","mean_motion":15.31699015,"eccentricity":0.0001191,"inclination_deg":53.1599,"raan_deg":146.6751,"arg_perigee_deg":90.2144,"mean_anomaly_deg":269.8994,"bstar":2.4476e-5,"rev_number":11532,"period_min":94.013248418783,"perigee_km":469.92722986113,"apogee_km":471.5586330608,"semimajor_km":6848.879931461,"source":"CELESTRAK","updated_at":"2026-05-25T13:38:19.049519Z"}}